Regional Weather Roundup
Issued by NWS

Home | Current Version | Previous Version | Graphics & Text | Print | Product List | Glossary On
Versions: 1 2 3 4 5 6 7 8 9 10 11 12 13 14 15 16 17 18 19 20 21 22 23 24 25 26 27 28 29 30 31 32 33 34 35 36 37 38 39 40 41 42 43 44 45 46 47 48 49 50
000
ASUS43 KTOP 301608
RWRKS

WEATHER ROUNDUP FOR KANSAS
NATIONAL WEATHER SERVICE GOODLAND KS
1100 AM CDT SAT JUL 30 2016

NOTE:  "FAIR" INDICATES FEW OR NO CLOUDS BELOW 12,000 FEET WITH NO
SIGNIFICANT WEATHER AND/OR OBSTRUCTIONS TO VISIBILITY.

KSZ001>006-013>018-027>032-041>047-301700-
NORTHWEST KANSAS

CITY           SKY/WX    TMP DP  RH WIND       PRES   REMARKS
GOODLAND       SUNNY     76  62  62 SE9       30.01F
HAYS           PTSUNNY   81  63  54 S13       30.00R
HILL CITY      SUNNY     81  67  62 S14       30.00S
RUSSELL        CLOUDY    76  68  76 SE6       30.00S
$$

KSZ061>065-074>080-084>089-301700-
SOUTHWEST KANSAS

CITY           SKY/WX    TMP DP  RH WIND       PRES   REMARKS
DODGE CITY     SUNNY     79  67  66 S14       30.02F
ELKHART          N/A     79  57  46 S18         N/A
GARDEN CITY    SUNNY     79  66  64 SE6       30.01S
GREAT BEND     PTSUNNY   79  64  61 S13       30.00S
LIBERAL        SUNNY     82  63  51 SW17G24   30.04S
PRATT          MOSUNNY   78  62  59 SE14      30.01S
$$

KSZ066>073-081>083-090>101-301700-
SOUTHEAST KANSAS

CITY           SKY/WX    TMP DP  RH WIND       PRES   REMARKS
CHANUTE        MOSUNNY   83  72  69 CALM      30.02S
COFFEYVILLE    CLOUDY    85  70  60 VRB3      30.01S
HUTCHINSON     CLOUDY    76  69  79 S10       30.00F
MEDICINE LODGE   N/A     78  67  68 SE8G17    29.99F
NEWTON         CLOUDY    80  68  66 SE8       30.03F
PARSONS        MOSUNNY   84  71  65 CALM      30.02F
WICHITA INTL   CLOUDY    74  69  85 S9        30.02S
WICHITA JABRA  CLOUDY    76  69  79 SE8       30.02F
WICHITA MCCONL CLOUDY    74  69  86 S9        30.02S
WINFIELD       LGT RAIN  73  70  90 SE5       30.03F
$$

KSZ007>012-019>026-033>040-048>060-102>105-301700-
NORTHEAST KANSAS

CITY           SKY/WX    TMP DP  RH WIND       PRES   REMARKS
CONCORDIA      MOSUNNY   78  67  68 SE3       30.02R
EMPORIA        MOSUNNY   79  68  69 SE8       30.03S
LAWRENCE       SUNNY     78  66  66 VRB5      30.04S
MANHATTAN      SUNNY     80  67  64 SE6       30.01F
MARYSVILLE     PTSUNNY   81  64  57 SE10      30.02S
OLATHE IND     MOSUNNY   79  63  57 NE3       30.05S
OLATHE EXE     MOSUNNY   79  63  57 NE3       30.05R
SALINA         SUNNY     86  67  52 S10       29.99F
TOPEKA BILLARD MOSUNNY   78  67  68 NE7       30.03F
TOPEKA FORBES  PTSUNNY   79  66  64 E7        30.04S
$$




USA.gov is the U.S. government's official web portal to all federal, state and local government web resources and services.